Home   Weather   Herne   Past weeks

Flag for Germany Past Weather in Herne, North Rhine-Westphalia, Germany — Yesterday and Last 2 Weeks

Now
64 °F

Passing clouds.


Feels Like: 64 °F
Forecast: 48 / 68 °F
Wind: 2 mph from North

Location: Dortmund / Wickede

Current Time: Sep 26, 2016 at 12:40:58 PM

Latest Report: Sep 26, 2016 at 11:50 AM


Visibility: N/A

Pressure: 30.21 "Hg

Humidity: 56%

Dew Point: 48 °F

Location of HerneLocation

Past Weather in Herne — Graph

°F

Herne Temperature Yesterday

Maximum temperature yesterday: 79 °F (at 2:20 PM)
Minimum temperature yesterday: 52 °F (at 5:20 AM)
Average temperature yesterday: 67 °F

High & Low Weather Summary for the Past Weeks

 TemperatureHumidityPressure
High90 °F (Sep 13, 3:20 PM)88% (Sep 16, 6:20 AM)30.27 "Hg (Sep 16, 6:20 AM)
Low45 °F (Sep 21, 6:20 AM)23% (Sep 15, 2:50 PM)29.80 "Hg (Sep 15, 3:50 PM)
Average66 °F57%30.05 "Hg
* Reported Sep 11 10:20 AM — Sep 26 10:50 AM, Herne, Weather by CustomWeather, © 2016

Note: Actual official high and low records may vary slightly from our data, if they occured in-between our weather recording intervals... More about our weather records

Advertising

Herne Weather History for the Previous 24 Hours

Scroll right to see more
 ConditionsComfort  
Time TempWeatherWind HumidityBarometerVisibility
10:50 AM
Mon, Sep 26
59 °FSunny.3 mph68%30.21 "Hg10 mi
10:20 AM57 °FSunny.3 mph72%30.21 "Hg10 mi
9:50 AM57 °FSunny.5 mph72%30.21 "Hg10 mi
9:20 AM55 °FSunny.6 mph77%30.21 "Hg10 mi
8:50 AM55 °FSunny.6 mph77%30.21 "Hg10 mi
8:20 AM52 °FPassing clouds.7 mph82%30.21 "HgN/A
7:50 AM54 °FScattered clouds.7 mph77%30.21 "HgN/A
7:20 AM52 °FPassing clouds.5 mph82%30.21 "HgN/A
6:50 AM55 °FPassing clouds.5 mph77%30.18 "HgN/A
6:20 AM55 °FPassing clouds.3 mph82%30.18 "HgN/A
5:50 AM55 °FPassing clouds.5 mph82%30.21 "HgN/A
5:20 AM55 °FPassing clouds.5 mph82%30.18 "HgN/A
1:20 AM57 °FClear.6 mph82%30.18 "Hg10 mi
12:50 AM57 °FClear.3 mph82%30.18 "Hg10 mi
12:20 AM59 °FClear.3 mph77%30.15 "Hg10 mi
11:50 PM
Sun, Sep 25
59 °FPassing clouds.8 mph72%30.15 "HgN/A
11:20 PM61 °FPassing clouds.8 mph68%30.15 "HgN/A
10:50 PM61 °FPassing clouds.8 mph72%30.12 "HgN/A
9:50 PM63 °FLight rain. Passing clouds.8 mph68%30.12 "HgN/A
9:20 PM64 °FLight rain. Passing clouds.9 mph68%30.09 "HgN/A
8:50 PM68 °FSprinkles. Passing clouds.10 mph56%30.07 "HgN/A
8:20 PM70 °FClear.7 mph50%30.07 "Hg10 mi
7:50 PM64 °FClear.6 mph56%30.04 "Hg10 mi
7:20 PM68 °FClear.6 mph49%30.04 "Hg10 mi
6:50 PM72 °FSunny.7 mph41%30.04 "Hg10 mi
6:20 PM73 °FSunny.9 mph38%30.01 "Hg10 mi
5:50 PM73 °FSunny.8 mph38%30.01 "Hg10 mi
5:20 PM75 °FSunny.9 mph36%30.01 "Hg10 mi
4:50 PM77 °FPassing clouds.12 mph30%30.01 "HgN/A
4:20 PM77 °FSunny.14 mph32%30.01 "Hg10 mi
3:50 PM79 °FSunny.14 mph30%30.01 "Hg10 mi
3:20 PM79 °FPassing clouds.13 mph30%30.01 "HgN/A
2:50 PM77 °FPassing clouds.13 mph30%30.01 "HgN/A
2:20 PM79 °FPassing clouds.12 mph28%30.01 "HgN/A
1:50 PM77 °FPassing clouds.13 mph32%30.01 "HgN/A
1:20 PM77 °FSunny.13 mph32%30.01 "Hg10 mi
12:50 PM75 °FPassing clouds.10 mph34%30.01 "HgN/A
12:20 PM75 °FPassing clouds.12 mph34%30.01 "HgN/A
Weather by CustomWeather, © 2016

See weather overviewHow to use our weather pages